GW1561 Weather Reports


time (UTC)temp
C
wind
direction
speed
KPH
gust
KPH
rain 1hr
cm
rain 24hr
cm
rain mn
cm
humidity
%
barometer
mb
20260508093011 1 337 0.0 0.0 0.00 0.00 0.00 97 985.4
20260508092441 1 336 0.0 0.0 0.00 0.00 0.00 98 985.4
20260508091844 1 337 0.0 0.0 0.00 0.00 0.00 97 985.4
20260508091227 1 337 0.0 0.0 0.00 0.00 0.00 97 985.1
20260508090611 1 335 0.0 0.0 0.00 0.00 0.00 97 985.1
20260508090017 1 336 0.0 0.0 0.00 0.00 0.00 97 985.1
20260508085452 1 337 0.0 0.0 0.00 0.00 0.00 97 985.1
20260508084851 1 337 0.0 0.0 0.00 0.00 0.00 97 984.7
20260508084213 1 340 0.0 0.0 0.00 0.00 0.00 97 985.1
20260508083637 1 340 0.0 0.0 0.00 0.00 0.00 97 985.1
20260508083030 1 337 0.0 0.0 0.00 0.00 0.00 97 985.1
20260508082410 1 340 0.0 0.0 0.00 0.00 0.00 97 985.1
20260508081835 1 340 0.0 0.0 0.00 0.00 0.00 97 984.7
20260508081242 1 337 0.0 0.0 0.00 0.00 0.00 97 985.1
20260508080642 1 333 0.0 0.0 0.00 0.00 0.00 97 985.1
20260508080018 1 331 0.0 0.0 0.00 0.00 0.00 97 985.1
20260508075412 1 336 0.0 0.0 0.00 0.00 0.00 97 985.1
20260508074838 1 333 0.0 0.0 0.00 0.00 0.00 97 985.1
20260508074244 1 340 0.0 0.0 0.00 0.00 0.00 97 985.1
20260508071849 2 333 0.0 0.0 0.00 0.00 0.00 97 984.4
20260508071218 1 337 0.0 0.0 0.00 0.00 0.00 97 984.7
20260508070629 2 337 0.0 0.0 0.00 0.00 0.00 97 984.7
20260508070013 2 337 0.0 0.0 0.00 0.00 0.00 97 984.7
20260508064815 2 333 0.0 0.0 0.00 0.00 0.00 97 984.7
20260508064240 2 337 0.0 0.0 0.00 0.00 0.00 97 984.7
20260508063615 2 337 0.0 0.0 0.00 0.00 0.00 97 984.7
20260508063019 2 336 0.0 0.0 0.00 0.00 0.00 97 984.7
20260508062446 2 331 0.0 0.0 0.00 0.00 0.00 97 985.1
20260508061847 2 336 0.0 0.0 0.00 0.00 0.00 97 984.7
20260508061251 2 336 0.0 0.0 0.00 0.00 0.00 96 985.1
20260508060018 2 333 0.0 0.0 0.00 0.00 0.00 96 984.7
20260508055412 2 337 0.0 0.0 0.00 0.00 0.00 96 984.7
20260508054842 2 337 0.0 0.0 0.00 0.00 0.00 96 984.7
20260508054247 2 337 0.0 0.0 0.00 0.00 0.00 96 984.7
20260508053023 3 333 0.0 0.0 0.00 0.00 0.00 96 984.7
20260508052422 3 327 0.0 0.0 0.00 0.00 0.00 96 984.7
20260508051812 3 336 0.0 0.0 0.00 0.00 0.00 96 984.7
20260508050015 3 327 0.0 0.0 0.00 0.00 0.00 96 984.7
20260508045408 3 331 0.0 0.0 0.00 0.00 0.00 96 984.4
20260508044823 3 336 0.0 0.0 0.00 0.00 0.00 95 984.7
20260508044236 3 337 0.0 0.0 0.00 0.00 0.00 95 984.7
20260508043641 3 337 0.0 0.0 0.00 0.00 0.00 95 984.7
20260508043040 3 337 0.0 0.0 0.00 0.00 0.00 95 985.1
20260508042452 3 335 0.0 0.0 0.00 0.00 0.00 95 984.7
20260508041839 4 335 0.0 0.0 0.00 0.00 0.00 95 984.7
20260508041239 4 335 0.0 0.0 0.00 0.00 0.00 95 984.7
20260508040031 4 337 0.0 0.0 0.00 0.00 0.00 94 984.7
20260508034212 4 329 0.0 0.0 0.00 0.00 0.00 94 984.4
20260508033026 5 333 0.0 0.0 0.00 0.00 0.00 94 984.4
20260508032422 5 334 0.0 0.0 0.00 0.00 0.00 93 984.4
20260508031833 5 334 0.0 0.0 0.00 0.00 0.00 93 984.0
20260508031219 5 333 0.0 0.0 0.00 0.00 0.00 93 984.4
20260508030621 5 335 0.0 0.0 0.00 0.00 0.00 93 984.4
20260508030049 5 335 0.0 0.0 0.00 0.00 0.00 93 984.0
20260508025436 5 335 0.0 0.0 0.00 0.00 0.00 92 984.0
20260508024821 5 335 0.0 0.0 0.00 0.00 0.00 92 984.0
20260508024231 6 333 0.0 0.0 0.00 0.00 0.00 91 984.0
20260508023617 6 333 0.0 0.0 0.00 0.00 0.00 91 983.7
20260508023046 6 332 0.0 0.0 0.00 0.00 0.00 91 983.7
20260508022438 6 333 0.0 0.0 0.00 0.00 0.00 90 983.7
20260508021816 6 333 0.0 0.0 0.00 0.00 0.00 90 983.4
20260508020618 6 333 0.0 0.0 0.00 0.00 0.00 90 983.4
20260508020040 6 333 0.0 0.0 0.00 0.00 0.00 89 983.4
20260508015442 7 333 0.0 0.0 0.00 0.00 0.00 89 983.0
20260508014848 7 333 0.0 0.0 0.00 0.00 0.00 88 983.0
20260508014239 7 333 0.0 0.0 0.00 0.00 0.00 88 983.4
20260508013652 7 333 0.0 0.0 0.00 0.00 0.00 87 983.0
20260508013013 7 333 0.0 0.0 0.00 0.00 0.00 87 983.0
20260508012448 7 333 0.0 0.0 0.00 0.00 0.00 86 982.7
20260508011837 8 333 0.0 0.0 0.00 0.00 0.00 85 982.3
20260508010027 8 333 0.0 0.0 0.00 0.00 0.00 84 982.3
20260508005409 8 333 0.0 0.0 0.00 0.00 0.00 83 982.3
20260508004812 9 333 0.0 0.0 0.00 0.00 0.00 82 982.3
20260508004211 9 333 0.0 0.0 0.00 0.00 0.00 80 982.3
20260508003626 10 332 0.0 0.0 0.00 0.00 0.00 81 982.3
20260508003023 10 333 0.0 0.0 0.00 0.00 0.00 79 982.3
20260508002451 10 333 0.0 0.0 0.00 0.00 0.00 79 982.3
20260508001824 10 332 0.0 0.0 0.00 0.00 0.00 78
20260508001210 11 333 0.0 0.0 0.00 0.00 0.00 75
20260508000633 11 336 0.0 0.0 0.00 0.00 0.00 73
20260507234831 12 327 0.0 3.2 0.00 0.00 0.00 72
20260507233611 13 333 0.0 0.0 0.00 0.00 0.00 70
20260507233013 13 333 0.0 0.0 0.00 0.00 0.00 65
20260507232440 13 336 0.0 0.0 0.00 0.00 0.00 65
20260507231834 14 337 0.0 0.0 0.00 0.00 0.00 61
20260507231209 15 342 0.0 0.0 0.00 0.00 0.00 56
20260507230638 15 337 0.0 0.0 0.00 0.00 0.00 58
20260507224829 16 344 1.6 4.8 0.00 0.00 0.00 43
20260507224214 16 345 0.0 3.2 0.00 0.00 0.00 44
20260507223013 16 359 0.0 1.6 0.00 0.00 0.00 47
20260507221810 16 352 3.2 9.7 0.00 0.00 0.00 42
20260507221222 16 356 1.6 4.8 0.00 0.00 0.00 46
20260507220630 16 3 1.6 6.4 0.00 0.00 0.00 43
20260507220029 16 223 4.8 4.8 0.00 0.00 0.00 44
20260507215448 17 322 3.2 4.8 0.00 0.00 0.00 44
20260507214815 17 250 3.2 4.8 0.00 0.00 0.00 46
20260507214220 17 349 4.8 9.7 0.00 0.00 0.00 45
20260507213642 17 67 3.2 3.2 0.00 0.00 0.00 43
20260507213045 17 31 4.8 4.8 0.00 0.00 0.00 45
20260507212409 17 211 3.2 11.3 0.00 0.00 0.00 47
20260507211840 17 312 1.6 3.2 0.00 0.00 0.00 45
20260507211210 17 190 6.4 6.4 0.00 0.00 0.00 48
20260507210631 17 343 3.2 4.8 0.00 0.00 0.00 43
20260507210013 17 35 6.4 9.7 0.00 0.00 0.00 43
20260507205410 17 5 3.2 4.8 0.00 0.00 0.00 51
20260507204215 17 102 4.8 9.7 0.00 0.00 0.00 49
20260507203650 17 307 8.0 14.5 0.00 0.00 0.00 46
20260507203050 17 33 1.6 6.4 0.00 0.00 0.00 54
20260507202447 17 241 3.2 3.2 0.00 0.00 0.00 49
20260507201828 17 355 0.0 11.3 0.00 0.00 0.00 49
20260507201216 17 342 0.0 1.6 0.00 0.00 0.00 50
20260507200634 17 3 1.6 12.9 0.00 0.00 0.00 45
20260507200042 17 277 3.2 4.8 0.00 0.00 0.00 50
20260507195419 16 24 1.6 6.4 0.00 0.00 0.00 49
20260507194822 17 349 3.2 6.4 0.00 0.00 0.00 47
20260507194242 17 12 1.6 6.4 0.00 0.00 0.00 52
20260507193648 16 346 0.0 3.2 0.00 0.00 0.00 53
20260507193028 16 16 4.8 9.7 0.00 0.00 0.00 49
20260507192437 17 190 3.2 6.4 0.00 0.00 0.00 48
20260507191828 17 321 1.6 1.6 0.00 0.00 0.00 52
20260507191226 17 303 0.0 6.4 0.00 0.00 0.00 49
20260507190624 17 342 0.0 6.4 0.00 0.00 0.00 50
20260507190024 17 34 11.3 14.5 0.00 0.00 0.00 49
20260507185431 18 13 0.0 16.1 0.00 0.00 0.00 50
20260507184824 17 23 3.2 6.4 0.00 0.00 0.00 51
20260507184236 18 222 1.6 3.2 0.00 0.00 0.00 48
20260507183644 18 351 1.6 9.7 0.00 0.00 0.00 49
20260507183018 16 294 1.6 1.6 0.00 0.00 0.00 53
20260507182417 16 7 4.8 6.4 0.00 0.00 0.00 62
20260507181850 17 17 1.6 3.2 0.00 0.00 0.00 51
20260507181227 18 6 0.0 11.3 0.00 0.00 0.00 48
20260507180617 17 46 3.2 4.8 0.00 0.00 0.00 50
20260507175424 17 2 4.8 6.4 0.00 0.00 0.00 53
20260507174829 18 11 1.6 9.7 0.00 0.00 0.00 51
20260507174209 17 10 0.0 4.8 0.00 0.00 0.00 51
20260507173614 17 353 0.0 9.7 0.00 0.00 0.00 53
20260507173052 17 351 1.6 3.2 0.00 0.00 0.00 55
20260507172444 17 5 4.8 6.4 0.00 0.00 0.00 61
20260507171848 16 237 1.6 1.6 0.00 0.00 0.00 59
20260507171215 15 226 3.2 6.4 0.00 0.00 0.00 61
20260507170653 15 354 1.6 3.2 0.00 0.00 0.00 62
20260507170024 15 0 0.0 3.2 0.00 0.00 0.00 63
20260507165432 15 338 0.0 3.2 0.00 0.00 0.00 60
20260507164846 16 17 0.0 1.6 0.00 0.00 0.00 57
20260507163628 15 349 0.0 1.6 0.00 0.00 0.00 62
20260507163019 15 13 4.8 9.7 0.00 0.00 0.00 61 982.3
20260507162447 15 346 0.0 1.6 0.00 0.00 0.00 65 982.3
20260507161847 15 317 0.0 0.0 0.00 0.00 0.00 63 982.3
20260507161236 16 315 3.2 4.8 0.00 0.00 0.00 60 982.3
20260507160647 16 316 3.2 3.2 0.00 0.00 0.00 64 982.3
20260507160048 15 234 4.8 6.4 0.00 0.00 0.00 62 982.3
20260507155436 13 356 0.0 0.0 0.00 0.00 0.00 65 982.7
20260507154825 13 342 0.0 0.0 0.00 0.00 0.00 64 982.3
20260507154227 13 275 3.2 3.2 0.00 0.00 0.00 64 982.3
20260507153642 14 353 0.0 1.6 0.00 0.00 0.00 61 982.3
20260507153047 14 335 0.0 4.8 0.00 0.00 0.00 63 982.7
20260507151221 13 5 1.6 3.2 0.00 0.00 0.00 65 983.0
20260507150650 13 355 1.6 1.6 0.00 0.00 0.00 67 982.7
20260507150015 12 347 0.0 0.0 0.00 0.00 0.00 71 982.7
20260507145432 12 354 0.0 0.0 0.00 0.00 0.00 74 982.7
20260507144824 12 356 0.0 0.0 0.00 0.00 0.00 73 982.7
20260507144217 13 346 0.0 0.0 0.00 0.00 0.00 75 983.0
20260507143646 12 350 0.0 0.0 0.00 0.00 0.00 78 982.7
20260507142415 12 330 0.0 0.0 0.00 0.00 0.00 80 982.7
20260507141817 12 332 0.0 1.6 0.00 0.00 0.00 81 983.0
20260507141245 11 339 0.0 0.0 0.00 0.00 0.00 82 983.4
20260507140627 12 329 0.0 0.0 0.00 0.00 0.00 82 983.4
20260507140032 11 333 0.0 0.0 0.00 0.00 0.00 83 983.0
20260507135419 11 348 0.0 0.0 0.00 0.00 0.00 84 983.4
20260507134816 11 331 0.0 1.6 0.00 0.00 0.00 86 983.4
20260507134217 11 324 0.0 0.0 0.00 0.00 0.00 86 983.4
20260507133622 11 328 0.0 1.6 0.00 0.00 0.00 86 983.4
20260507133045 11 341 0.0 0.0 0.00 0.00 0.00 91 983.4
20260507132447 11 338 0.0 0.0 0.00 0.00 0.00 92 983.7
20260507131816 11 346 0.0 0.0 0.00 0.00 0.00 93 983.7
20260507131223 10 346 0.0 0.0 0.00 0.00 0.00 95 983.4
20260507130625 10 348 0.0 1.6 0.00 0.00 0.00 96 983.4
20260507130016 10 344 0.0 0.0 0.00 0.00 0.00 98 983.4
20260507125427 10 344 0.0 0.0 0.00 0.00 0.00 98 983.4
20260507124848 10 341 0.0 0.0 0.00 0.00 0.00 98 983.4
20260507123614 10 337 0.0 0.0 0.00 0.00 0.00 99 983.7
20260507123031 10 345 0.0 0.0 0.00 0.00 0.00 99 983.4
20260507122425 10 345 0.0 0.0 0.00 0.00 0.00 99 983.7
20260507121835 10 345 0.0 0.0 0.00 0.00 0.00 99 983.4
20260507121211 10 344 0.0 0.0 0.00 0.00 0.00 99 983.4
20260507120620 10 344 0.0 0.0 0.00 0.00 0.00 99 983.7
20260507115423 9 344 0.0 0.0 0.00 0.00 0.00 99 983.7
20260507114843 10 342 0.0 0.0 0.00 0.00 0.00 99 983.7
20260507114212 9 340 0.0 0.0 0.00 0.00 0.00 99 983.7
20260507113639 9 340 0.0 0.0 0.00 0.00 0.00 99 983.4
20260507113040 9 333 0.0 0.0 0.00 0.00 0.00 99 983.4
20260507112416 9 336 0.0 0.0 0.00 0.00 0.00 99 983.4
20260507111849 9 333 0.0 0.0 0.00 0.00 0.00 99 983.0
20260507111239 9 337 0.0 0.0 0.00 0.00 0.00 99 983.0
20260507110617 9 336 0.0 0.0 0.00 0.00 0.00 99 983.0
20260507110050 9 337 0.0 0.0 0.00 0.00 0.00 99 983.0
20260507105425 9 336 0.0 0.0 0.00 0.00 0.00 99 982.7
20260507104852 9 333 0.0 0.0 0.00 0.00 0.00 99 982.7
20260507103653 9 337 0.0 0.0 0.00 0.00 0.00 99 982.7
20260507103022 9 336 0.0 0.0 0.00 0.00 0.00 99 982.7
20260507102412 9 335 0.0 0.0 0.00 0.00 0.00 99 982.7
20260507101824 9 340 0.0 0.0 0.00 0.00 0.00 99 982.3
20260507101231 8 340 0.0 0.0 0.00 0.00 0.00 99 982.7
20260507100652 9 340 0.0 0.0 0.00 0.00 0.00 99 982.3
20260507094809 9 333 0.0 0.0 0.00 0.00 0.00 99 982.7
20260507094235 9 340 0.0 0.0 0.00 0.00 0.00 99 982.7